Skip Page Navigation
NASA JPL Caltech
NASA Logo - Jet Propulsion Laboratory + View the NASA Portal
+ Center for Near-Earth Object Studies
JPL Home Earth Solar System Stars & Galaxies Technology
JPL Solar System Dynamics
BODIES ORBITS EPHEMERIDES TOOLS PHYSICAL DATA DISCOVERY FAQ SITE MAP
IMPORTANT: The SSD Announcement email list is now available. Major changes are coming in the near future, including possible hostname and/or URL changes. To be notified of such changes, subscribe to this email list.

Please visit this page for more details.


JPL Small-Body Database Browser
Search: [ help ]  
35506 (1998 FU43)
Classification: Main-belt Asteroid          SPK-ID: 2035506
Ephemeris | Orbit Diagram | Orbital Elements | Mission Design | Physical Parameters | Discovery Circumstances | Close-Approach Data ]

[ show orbit diagram ]
Orbital Elements at Epoch 2458600.5 (2019-Apr-27.0) TDB
Reference: JPL 20 (heliocentric ecliptic J2000)
 Element Value Uncertainty (1-sigma)   Units 
e .03620259589833088 4.5202e-08  
a 2.704613128806803 1.4272e-08 au
q 2.60669911264329 1.2551e-07 au
i 2.292055694438747 4.941e-06 deg
node 352.7447386079594 0.00011607 deg
peri 78.41549433495229 0.00013455 deg
M 13.25846982922754 6.7121e-05 deg
tp 2458540.666134813027
(2019-Feb-26.16613481)
0.0003029 TDB
period 1624.636307564413
4.45
1.286e-05
3.521e-08
d
yr
n .2215880553227922 1.754e-09 deg/d
Q 2.802527144970316 1.4789e-08 au
  Orbit Determination Parameters
   # obs. used (total)      867  
   data-arc span      9970 days (27.30 yr)  
   first obs. used      1991-10-07  
   last obs. used      2019-01-23  
   planetary ephem.      DE431  
   SB-pert. ephem.      SB431-N16  
   condition code      0  
   norm. resid. RMS      .57567  
   source      ORB  
   producer      Otto Matic  
   solution date      2019-Jul-13 01:47:22  

Additional Information
 Earth MOID = 1.62179 au 
 Jupiter MOID = 2.28813 au 
 T_jup = 3.364 
[ show covariance matrix ]

Ephemeris | Orbit Diagram | Orbital Elements | Mission Design | Physical Parameters | Discovery Circumstances | Close-Approach Data ]

Physical Parameter Table
Parameter Symbol Value Units Sigma Reference Notes
absolute magnitude H 15.1   n/a MPO337550  

35506 (1998 FU43)          Discovered 1998-Mar-20 by LINEAR at Socorro
Reference: 20020227/Numbers.arcLast Updated: 2004-04-19

[ show close-approach data ]
Alternate Designations
 1998 FU43 = 2000 SP145 
Ephemeris | Orbit Diagram | Orbital Elements | Mission Design | Physical Parameters | Discovery Circumstances | Close-Approach Data ]
ABOUT SSD CREDITS/AWARDS PRIVACY/COPYRIGHT GLOSSARY LINKS
FirstGov 2019-Oct-22 07:11 UT
(server date/time)  
NASA Home Page
Site Manager:   Ryan S. Park
Webmaster  Alan B. Chamberlin